Wind_Speed
45 44 45 47 46 44 45 45 49 51 52 51 52 54 54 54 55 55 55 55 55 55 55 55 56 56 57 57 58 58 58 59 60 62 62 63 63 63 63 64 65 66 67 67
48 46 48 50 46 44 46 47 50 52 53 51 54 55 57 58 58 58 58 57 57 56 56 56 57 57 57 57 58 58 59 60 61 62 63 63 63 63 63 64 65 65 65 64
51 49 52 50 46 46 47 48 50 52 53 54 56 57 58 59 59 59 58 58 57 56 56 57 57 58 58 58 58 58 59 61 62 62 62 62 63 62 62 63 64 64 63 62
52 52 54 50 49 49 50 50 51 52 54 57 58 58 60 60 60 59 60 59 59 58 58 58 59 59 58 58 58 59 60 61 61 61 61 62 61 61 62 62 62 61 60 60
52 53 54 50 50 53 54 53 52 55 56 58 59 58 59 59 60 61 61 60 60 60 60 60 59 58 58 58 59 59 59 59 60 60 60 60 60 60 59 59 58 58 58 57
49 52 54 51 51 52 54 54 54 55 56 57 58 58 56 56 58 58 59 59 60 60 60 59 58 58 58 58 58 58 58 58 58 58 58 57 58 57 57 57 56 55 55 55
48 51 52 51 52 53 54 55 55 55 56 56 56 56 54 54 54 55 56 57 58 58 58 57 57 57 56 55 56 56 55 55 55 55 55 55 55 54 54 53 53 53 52 52
48 50 49 50 52 53 53 54 54 54 54 54 53 53 53 53 54 54 54 55 56 56 55 54 54 54 53 53 54 53 53 52 52 53 53 53 52 51 51 50 50 50 49 49
48 48 48 49 51 52 52 53 52 52 51 51 51 51 52 52 51 51 51 52 52 51 50 50 51 51 51 51 52 51 50 50 51 52 52 51 50 49 48 48 48 48 47 48
48 47 47 49 50 50 51 51 51 51 51 50 51 51 52 51 50 49 49 48 48 47 46 47 48 49 49 50 50 50 50 51 52 51 51 50 49 48 47 47 46 46 45 46
50 49 49 49 49 50 50 51 51 51 50 50 51 50 49 48 48 48 47 47 47 46 46 45 46 47 48 49 49 50 51 52 52 52 51 51 49 48 47 47 46 45 44 44
52 52 54 51 52 52 53 52 52 51 50 50 50 49 48 48 49 49 49 48 47 46 47 47 47 48 49 51 52 52 53 53 53 52 51 50 49 48 48 47 45 44 43 44
55 55 55 54 54 54 54 54 53 52 52 51 50 50 50 50 50 50 49 49 49 48 49 50 50 51 52 52 52 53 54 54 53 52 51 50 49 48 47 46 44 43 43 43
57 57 56 55 55 54 55 55 54 54 53 52 52 52 52 52 51 51 51 51 51 51 52 52 52 53 54 54 55 56 56 56 55 54 52 50 49 48 47 45 44 43 42 41
58 58 57 57 56 55 55 55 55 55 54 53 53 53 53 53 52 51 52 52 53 53 53 53 53 54 55 56 56 57 57 57 57 55 53 52 51 49 46 44 43 42 41 39
58 58 57 56 55 55 55 55 55 55 55 54 54 53 53 53 52 52 53 54 54 53 53 54 54 55 56 57 57 57 57 57 56 55 53 52 50 48 46 43 42 40 39 37
55 55 54 53 53 53 53 54 54 54 54 54 53 53 53 52 52 53 53 53 53 53 54 55 56 57 57 58 58 57 56 55 55 54 53 51 48 47 44 42 40 38 36 35
52 52 52 51 51 51 52 52 52 53 53 53 53 53 53 53 52 51 51 51 52 53 55 56 57 57 57 57 56 56 55 55 54 52 50 49 46 44 41 39 37 36 34 33
48 48 49 49 50 50 50 51 51 52 52 52 52 51 50 50 51 51 50 51 52 53 53 54 55 55 55 55 55 55 54 53 51 50 48 46 43 40 38 36 34 33 32 30
46 46 46 47 47 48 48 49 49 49 49 49 48 48 48 48 49 49 49 50 52 53 53 53 54 54 54 54 54 54 53 52 51 49 46 43 40 37 35 33 32 30 28 28
44 45 45 46 46 47 47 48 48 47 47 47 48 47 47 47 47 48 48 48 49 51 52 52 53 53 54 54 54 53 52 51 50 47 43 40 37 34 32 30 28 27 26 25
45 45 45 46 46 46 46 47 47 47 46 46 46 46 46 45 46 47 48 49 49 50 50 51 52 53 54 54 53 51 50 48 46 43 39 36 34 31 28 27 25 24 23 22
45 45 45 46 46 45 45 45 45 44 44 44 44 44 44 44 45 45 45 46 47 48 49 50 51 53 54 53 51 49 48 46 43 39 35 33 29 26 24 22 21 21 20 20
44 44 44 45 45 44 44 44 43 43 43 43 43 43 44 43 43 45 45 46 47 47 48 50 51 52 51 50 48 46 44 42 38 34 30 27 25 22 21 19 18 17 17 17
44 44 44 44 44 44 43 42 42 41 41 41 41 42 43 43 43 43 43 44 45 46 47 49 50 49 48 47 44 42 40 36 31 27 24 21 20 19 18 16 15 15 14 14
45 44 44 44 43 43 42 41 40 39 40 39 39 40 41 42 42 42 42 43 44 45 46 47 46 45 45 43 40 38 34 29 24 20 17 15 15 14 14 13 13 13 13 12
45 45 44 43 42 41 41 40 40 39 39 38 38 38 39 40 40 40 41 42 42 43 43 43 43 42 41 39 36 32 27 23 18 15 12 11 10 11 11 11 11 11 11 10
Wind_Direction
289 290 290 289 291 294 295 295 293 295 294 297 296 295 296 296 297 297 297 298 298 298 298 298 298 297 296 296 296 296 297 298 299 300 302 304 305 307 308 310 312 314 315 316
289 290 289 289 293 295 293 293 292 292 293 294 293 294 295 296 297 298 299 299 299 300 300 300 299 299 298 297 296 296 297 298 299 300 302 304 305 307 309 310 312 314 315 316
290 290 288 290 294 293 292 291 291 292 293 293 293 294 295 296 297 298 299 300 300 301 301 301 300 299 299 298 297 297 297 298 299 301 303 304 306 308 309 310 312 314 315 315
292 293 292 296 296 296 293 292 293 293 292 292 293 294 295 296 298 299 300 301 301 301 301 301 300 300 299 299 298 298 299 300 301 302 303 305 306 308 309 311 312 313 314 316
294 295 297 300 299 296 295 294 295 293 293 293 294 294 295 297 298 299 300 300 301 301 301 300 299 299 299 299 299 301 301 301 302 303 305 306 307 308 310 311 312 314 315 315
295 296 298 303 300 298 297 297 296 295 295 296 296 296 297 296 297 297 298 299 299 300 300 299 298 298 299 300 301 302 302 303 303 303 304 306 307 309 310 311 312 313 314 315
297 297 300 302 300 300 299 300 298 298 297 297 298 299 299 299 300 300 299 299 300 300 300 300 299 299 300 301 302 303 303 304 304 304 305 306 308 310 311 311 312 313 313 315
299 300 303 302 301 300 299 299 299 299 299 299 300 300 301 302 302 302 302 301 301 301 301 301 300 300 300 301 303 304 305 305 305 305 306 307 308 310 311 313 313 313 314 315
300 302 302 301 299 299 299 300 300 299 300 300 300 301 302 303 304 304 305 304 304 304 304 303 302 301 301 302 303 304 305 306 306 307 307 308 309 310 311 313 313 312 314 315
297 300 299 298 298 299 299 300 301 301 300 300 301 303 304 304 305 306 307 307 307 307 307 306 305 304 304 304 304 305 306 307 307 307 307 307 308 309 310 312 314 314 314 314
296 297 296 297 297 297 298 299 299 299 300 301 302 303 304 305 305 306 308 308 308 308 308 308 307 307 306 305 305 306 307 307 307 307 306 306 307 307 309 311 312 313 314 314
293 293 293 295 294 295 296 297 297 298 298 299 300 301 303 303 304 306 307 307 308 308 308 308 308 308 307 307 307 307 306 306 307 306 305 305 304 305 306 308 309 310 311 313
289 289 290 292 292 293 294 295 295 296 296 297 298 300 301 302 303 305 306 306 306 306 306 306 306 306 306 307 307 308 307 307 307 306 305 304 304 304 305 306 307 308 309 311
287 287 288 289 290 290 291 292 293 294 295 296 297 299 300 301 303 304 305 306 306 307 306 306 306 306 306 306 306 306 306 305 305 304 303 302 302 302 302 303 305 305 307 308
286 287 287 287 288 289 290 291 292 293 294 295 296 298 300 301 303 303 304 305 306 306 305 305 305 306 306 306 305 305 304 304 303 302 301 300 299 299 298 299 301 302 304 305
285 285 286 287 288 288 289 290 291 292 293 294 296 297 299 301 302 303 304 304 305 305 304 305 305 306 306 305 305 305 305 304 303 302 301 299 297 295 295 295 296 298 300 301
284 285 285 286 286 287 288 289 291 291 292 293 295 297 298 300 301 302 303 303 304 304 304 305 306 306 307 307 307 306 306 305 303 302 301 299 297 294 291 291 292 294 295 297
284 284 285 285 285 286 287 289 290 291 292 293 295 297 298 300 300 301 302 303 304 305 305 306 307 308 308 308 309 309 307 306 304 302 300 297 296 293 289 288 289 289 290 293
285 285 285 285 286 287 288 289 290 291 293 295 296 298 299 300 301 302 303 304 305 306 307 307 308 309 309 309 309 309 308 308 306 304 301 298 294 290 287 285 286 287 287 289
285 285 286 287 287 288 289 290 292 294 295 297 298 299 300 302 303 304 305 306 306 307 308 309 309 310 310 311 310 310 309 308 307 305 302 298 293 288 284 282 282 283 284 286
286 287 287 288 288 288 290 292 293 295 296 298 300 301 302 303 304 306 307 307 308 309 310 310 311 311 312 311 310 309 308 307 306 304 301 296 291 285 281 279 278 277 280 282
287 287 287 288 288 289 291 292 294 296 297 298 300 301 302 303 305 306 308 308 310 310 311 312 313 313 313 313 312 310 308 307 306 303 299 295 290 283 278 275 272 273 276 278
288 288 288 288 290 291 291 293 295 296 298 299 301 302 303 305 306 307 308 310 311 312 314 314 315 316 316 316 314 312 309 307 305 302 298 295 287 279 274 270 270 270 270 273
289 289 289 289 291 292 293 293 295 296 298 300 301 302 303 305 307 308 310 311 312 314 315 316 317 318 318 317 316 314 312 309 305 300 296 291 281 272 267 265 266 264 264 268
290 290 291 291 292 293 293 294 295 296 297 299 301 302 303 306 308 309 310 312 314 315 317 318 319 320 320 319 318 317 316 313 307 301 295 286 275 267 260 257 256 254 255 263
291 291 291 291 292 293 294 295 295 296 297 298 300 301 303 306 308 309 311 313 315 317 318 320 321 321 322 322 321 320 319 316 310 303 295 283 271 261 253 249 247 246 251 259
290 290 291 292 292 293 294 295 296 297 297 299 300 301 303 306 308 310 311 313 316 318 319 321 323 324 325 325 325 324 323 320 314 307 298 285 269 253 244 240 239 240 246 252
Height
5772 5770 5766 5762 5761 5759 5754 5750 5744 5740 5736 5734 5728 5722 5718 5714 5710 5706 5702 5697 5693 5688 5683 5678 5672 5667 5661 5655 5649 5643 5637 5631 5624 5617 5610 5603 5596 5588 5580 5571 5562 5552 5543 5532
5761 5760 5755 5751 5753 5750 5744 5739 5733 5728 5725 5723 5716 5711 5706 5701 5697 5693 5688 5684 5679 5675 5670 5664 5658 5653 5647 5641 5635 5629 5623 5617 5610 5603 5596 5589 5582 5574 5566 5558 5549 5540 5530 5520
5748 5748 5742 5742 5745 5739 5734 5729 5723 5717 5715 5709 5704 5699 5694 5689 5684 5679 5675 5670 5666 5661 5656 5650 5644 5638 5633 5627 5620 5614 5608 5602 5596 5589 5582 5575 5568 5561 5553 5544 5536 5527 5517 5507
5735 5733 5728 5734 5730 5725 5719 5716 5712 5705 5701 5695 5691 5686 5680 5675 5670 5665 5660 5656 5651 5647 5642 5636 5630 5624 5618 5612 5606 5600 5594 5588 5582 5575 5569 5562 5554 5547 5539 5531 5523 5514 5505 5496
5724 5718 5715 5719 5717 5709 5704 5702 5698 5691 5686 5682 5677 5673 5668 5662 5657 5651 5646 5642 5637 5632 5627 5622 5616 5609 5604 5598 5592 5585 5579 5573 5567 5561 5554 5548 5541 5534 5526 5518 5510 5502 5493 5484
5714 5708 5704 5708 5702 5694 5690 5687 5682 5676 5672 5667 5663 5658 5657 5651 5645 5640 5634 5629 5623 5618 5612 5607 5601 5595 5589 5584 5578 5572 5565 5560 5553 5547 5540 5534 5527 5520 5513 5506 5498 5490 5482 5473
5703 5696 5694 5694 5688 5682 5678 5675 5668 5663 5658 5654 5649 5644 5640 5636 5631 5626 5621 5615 5608 5602 5597 5591 5585 5580 5575 5570 5564 5558 5552 5546 5540 5533 5527 5521 5514 5508 5501 5493 5486 5478 5470 5462
5692 5687 5686 5680 5674 5669 5665 5660 5655 5650 5645 5640 5636 5631 5626 5622 5617 5612 5606 5600 5594 5588 5583 5577 5570 5565 5561 5556 5550 5544 5539 5532 5526 5520 5514 5507 5501 5495 5488 5481 5474 5466 5459 5451
5682 5680 5675 5668 5661 5657 5652 5647 5643 5638 5634 5629 5624 5619 5614 5609 5604 5598 5593 5587 5580 5574 5569 5564 5557 5551 5547 5542 5537 5531 5525 5519 5513 5507 5501 5494 5488 5482 5476 5469 5462 5455 5448 5440
5671 5670 5663 5657 5650 5645 5640 5635 5631 5626 5622 5616 5611 5607 5601 5596 5591 5585 5579 5573 5567 5562 5556 5551 5545 5539 5533 5528 5524 5518 5512 5506 5500 5494 5488 5482 5476 5470 5464 5458 5451 5444 5437 5430
5659 5656 5651 5647 5639 5634 5629 5625 5620 5615 5610 5605 5600 5594 5589 5584 5578 5572 5567 5561 5555 5550 5545 5539 5534 5528 5521 5516 5511 5506 5500 5493 5487 5481 5475 5469 5463 5458 5452 5446 5440 5433 5427 5420
5645 5641 5635 5634 5628 5622 5617 5613 5608 5603 5598 5593 5588 5583 5578 5572 5566 5561 5555 5549 5544 5539 5533 5528 5522 5516 5510 5504 5498 5492 5486 5480 5474 5468 5462 5456 5450 5445 5439 5434 5428 5422 5416 5410
5630 5626 5621 5619 5614 5609 5604 5600 5595 5590 5586 5581 5576 5570 5565 5560 5555 5549 5543 5537 5532 5527 5521 5515 5510 5504 5497 5491 5485 5479 5472 5466 5460 5454 5448 5442 5437 5432 5427 5422 5417 5411 5406 5400
5614 5610 5608 5604 5600 5595 5590 5586 5581 5577 5572 5567 5563 5558 5553 5548 5542 5536 5530 5525 5519 5514 5508 5502 5496 5490 5483 5478 5471 5465 5458 5452 5446 5440 5434 5429 5423 5418 5414 5409 5405 5400 5395 5390
5598 5594 5591 5588 5584 5580 5576 5572 5568 5563 5558 5554 5549 5544 5539 5534 5529 5523 5517 5512 5506 5500 5494 5488 5482 5476 5469 5463 5457 5450 5443 5437 5431 5425 5419 5413 5408 5404 5400 5396 5393 5389 5385 5380
5583 5578 5575 5572 5569 5565 5561 5557 5553 5549 5545 5540 5536 5531 5526 5521 5516 5510 5504 5498 5492 5487 5480 5474 5468 5462 5455 5448 5441 5435 5428 5420 5414 5408 5402 5396 5392 5388 5385 5383 5380 5377 5374 5370
5566 5563 5560 5557 5553 5549 5545 5542 5538 5534 5530 5526 5522 5517 5513 5508 5503 5497 5491 5485 5478 5472 5465 5459 5454 5447 5439 5432 5425 5418 5411 5404 5397 5391 5385 5380 5375 5372 5370 5368 5367 5365 5362 5360
5550 5548 5545 5541 5538 5535 5531 5527 5523 5519 5516 5512 5508 5503 5498 5493 5488 5483 5478 5472 5465 5459 5451 5444 5438 5431 5423 5416 5409 5402 5394 5387 5380 5374 5368 5363 5359 5356 5355 5354 5354 5353 5351 5349
5535 5533 5530 5527 5524 5521 5517 5514 5510 5506 5502 5497 5494 5489 5484 5479 5473 5468 5463 5457 5450 5445 5439 5430 5423 5416 5408 5401 5393 5386 5379 5372 5365 5358 5352 5348 5344 5342 5342 5342 5341 5341 5341 5340
5522 5520 5517 5513 5510 5507 5503 5500 5496 5492 5488 5483 5479 5475 5470 5465 5459 5454 5449 5443 5435 5429 5424 5416 5409 5402 5394 5387 5379 5372 5364 5357 5350 5344 5338 5334 5332 5330 5330 5330 5330 5331 5331 5330
5509 5507 5503 5500 5497 5494 5490 5486 5482 5479 5475 5470 5466 5461 5457 5452 5446 5441 5435 5430 5423 5416 5409 5402 5394 5387 5380 5372 5364 5357 5349 5342 5335 5329 5325 5321 5319 5318 5318 5319 5320 5321 5321 5322
5496 5493 5490 5487 5483 5480 5477 5472 5469 5465 5461 5457 5452 5448 5443 5439 5434 5428 5422 5415 5410 5403 5396 5389 5381 5373 5365 5357 5349 5341 5334 5327 5321 5316 5312 5309 5307 5307 5307 5309 5311 5312 5313 5314
5483 5480 5476 5473 5470 5467 5464 5460 5456 5452 5448 5444 5440 5435 5430 5426 5421 5416 5411 5404 5397 5390 5383 5376 5368 5359 5351 5342 5334 5326 5319 5313 5308 5303 5300 5298 5297 5298 5299 5301 5303 5304 5306 5307
5469 5466 5462 5459 5456 5453 5450 5447 5443 5440 5435 5431 5427 5422 5417 5414 5409 5403 5397 5392 5385 5378 5371 5363 5355 5346 5337 5329 5321 5313 5306 5300 5295 5292 5290 5289 5289 5290 5292 5294 5296 5298 5299 5301
5455 5452 5449 5446 5443 5440 5437 5434 5431 5427 5423 5420 5415 5410 5405 5401 5397 5392 5386 5380 5373 5367 5360 5352 5344 5335 5326 5318 5310 5302 5296 5290 5285 5282 5281 5280 5281 5283 5285 5287 5290 5292 5294 5296
5442 5439 5435 5432 5429 5426 5423 5421 5418 5414 5411 5408 5404 5399 5394 5390 5385 5380 5375 5369 5363 5356 5349 5342 5333 5325 5317 5309 5301 5294 5288 5283 5279 5277 5275 5275 5276 5278 5280 5283 5285 5288 5290 5292
5428 5425 5422 5419 5416 5413 5410 5407 5404 5402 5398 5395 5393 5389 5384 5379 5374 5369 5364 5359 5353 5346 5340 5332 5325 5317 5309 5302 5295 5288 5283 5278 5275 5274 5272 5272 5273 5274 5277 5279 5282 5284 5287 5289